Home   Weather   Dortmund   Past weeks

Flag for Germany Past Weather in Dortmund, North Rhine-Westphalia, Germany — Yesterday and Last 2 Weeks

Now
45 °F

Sunny.


Feels Like: 40 °F
Forecast: 37 / 49 °F
Wind: 8 mph from Southwest

Location: Dortmund / Wickede

Current Time: Apr 28, 2017 at 8:28:42 pm

Latest Report: Apr 28, 2017 at 7:50 pm


Visibility: 10 mi

Pressure: 29.95 "Hg

Humidity: 71%

Dew Point: 36 °F

Location of DortmundLocation

Past Weather in Dortmund — Graph

°F

Dortmund Temperature Yesterday

Maximum temperature yesterday: 50 °F (at 2:50 pm)
Minimum temperature yesterday: 32 °F (at 5:20 am)
Average temperature yesterday: 43 °F

High & Low Weather Summary for the Past Weeks

 TemperatureHumidityPressure
High57 °F (Apr 24, 2:50 pm)93% (Apr 14, 6:50 am)30.60 "Hg (Apr 14, 6:50 am)
Low25 °F (Apr 20, 5:20 am)28% (Apr 20, 3:20 pm)29.68 "Hg (Apr 25, 5:20 am)
Average44 °F64%30.11 "Hg
* Reported Apr 13 7:20 pm — Apr 28 7:20 pm, Dortmund, Weather by CustomWeather, © 2017

Note: Actual official high and low records may vary slightly from our data, if they occured in-between our weather recording intervals... More about our weather records

Advertising

Dortmund Weather History for the Previous 24 Hours

Scroll right to see more
 ConditionsComfort  
Time TempWeatherWind HumidityBarometerVisibility
7:20 pm
Fri, Apr 28
45 °FSunny.8 mph66%29.95 "Hg10 mi
6:50 pm46 °FPartly sunny.13 mph62%29.95 "HgN/A
6:20 pm50 °FPartly sunny.8 mph58%29.92 "HgN/A
5:50 pm50 °FPassing clouds.8 mph58%29.92 "HgN/A
5:20 pm50 °FOvercast.9 mph58%29.92 "HgN/A
4:50 pm48 °FOvercast.13 mph62%29.92 "HgN/A
4:20 pm50 °FOvercast.8 mph58%29.92 "HgN/A
3:50 pm50 °FPartly sunny.10 mph54%29.92 "HgN/A
3:20 pm50 °FPartly sunny.9 mph54%29.92 "HgN/A
2:50 pm48 °FPartly sunny.7 mph58%29.92 "HgN/A
2:20 pm50 °FPartly sunny.8 mph54%29.92 "HgN/A
1:50 pm48 °FPartly sunny.9 mph54%29.92 "HgN/A
1:20 pm48 °FBroken clouds.8 mph54%29.92 "HgN/A
12:50 pm48 °FPartly sunny.8 mph58%29.92 "HgN/A
12:20 pm48 °FPartly sunny.12 mph58%29.92 "HgN/A
11:50 am48 °FPartly sunny.9 mph54%29.92 "HgN/A
11:20 am46 °FPartly sunny.12 mph57%29.92 "HgN/A
10:50 am45 °FOvercast.12 mph61%29.92 "HgN/A
10:20 am45 °FOvercast.10 mph66%29.92 "HgN/A
9:20 am43 °FPartly sunny.9 mph66%29.92 "HgN/A
8:50 am41 °FPartly sunny.9 mph70%29.92 "HgN/A
8:20 am41 °FPartly sunny.9 mph70%29.92 "HgN/A
7:50 am39 °FScattered clouds.8 mph75%29.92 "HgN/A
7:20 am36 °FSunny.8 mph81%29.92 "Hg10 mi
6:50 am34 °FSunny.8 mph81%29.92 "Hg10 mi
6:20 am34 °FSunny.8 mph81%29.92 "Hg10 mi
5:50 am34 °FClear.9 mph81%29.92 "Hg10 mi
5:20 am34 °FClear.9 mph87%29.92 "Hg10 mi
9:50 pm
Thu, Apr 27
41 °FClear.2 mph66%29.98 "Hg10 mi
9:20 pm43 °FClear.3 mph66%29.98 "Hg10 mi
8:50 pm43 °FClear.3 mph61%29.98 "Hg10 mi
8:20 pm43 °FScattered clouds.2 mph61%29.98 "HgN/A
Weather by CustomWeather, © 2017

See weather overviewHow to use our weather pages